Location: ??????
(42.0089°N, 44.3281°E)
Time: 06:03:50
(UTC+00:00)

DMSP B5D2-2 - Visible Passes

Search period start: 21 May 2022 00:00
Search period end: 31 May 2022 00:00
Orbit: 790 x 805 km, 98.3° (Epoch: 20 May)

Date Brightness Start Highest point End Pass type
(mag) Time Alt. Az. Time Alt. Az. Time Alt. Az.
21 May 7.8 17:23:41 10° NW 17:25:04 11° WNW 17:26:27 10° WNW visible
22 May 7.2 16:54:32 10° NNW 16:58:07 19° WNW 17:01:43 10° WSW visible
23 May 7.7 00:57:10 10° E 00:59:22 13° ENE 01:01:34 10° NNE visible
25 May 7.5 17:13:06 10° NNW 17:15:31 13° WNW 17:17:56 10° W visible
27 May 7.9 00:48:51 10° ENE 00:49:49 10° ENE 00:50:47 10° NE visible
29 May 7.3 17:02:52 10° NNW 17:05:57 16° WNW 17:09:02 10° W visible
